Orbital Elements at Epoch 2459000.5 (2020-May-31.0) TDB
Reference: JPL 14 (heliocentric ecliptic J2000)
Element | Value | Uncertainty (1-sigma) | Units |
e | .2705000770123144 | 9.6899e-08 | |
a | 2.654262708940702 | 1.3524e-08 | au |
q | 1.936284441761328 | 2.5583e-07 | au |
i | 3.651427336293236 | 1.0373e-05 | deg |
node | 191.1655673456941 | 0.00016011 | deg |
peri | 191.9912079547724 | 0.00016114 | deg |
M | 227.3483624404177 | 1.7735e-05 | deg |
tp | 2459582.501896684568 (2022-Jan-03.00189668) | 8.0295e-05 | TDB |
period | 1579.480560218002 4.32 | 1.2072e-05 3.305e-08 | d yr |
n | .2279230330953312 | 1.742e-09 | deg/d |
Q | 3.372240976120077 | 1.7182e-08 | au |
|
| | Orbit Determination Parameters
Additional Information
|